Warrensburg, MO

10:30 AM CDT on October 17, 2017 (GMT -0500)
Skyhaven

Weather History for KRCM - May, 2014

Change the Weather History Date:

Monday, May 5, 2014

  Actual Average (KSZL) Record (KSZL)
Temperature  
Mean Temperature - -  
Max Temperature - 71 °F 88 °F (2012)
Min Temperature - 51 °F 44 °F (2013)
Moisture  
Dew Point -    
Average Humidity    
Maximum Humidity    
Minimum Humidity    
Precipitation  
Precipitation 0.00 in - - ()
Sea Level Pressure  
Sea Level Pressure 29.73 in    
Wind  
Wind Speed 5 mph (SSE)    
Max Wind Speed 16 mph    
Max Gust Speed 21 mph    
Visibility 10 miles    
Events      
Averages and records for this station are not official NWS values.
T = Trace of Precipitation, MM = Missing Value Source: NWS Daily Summary

Daily Weather History Graph

Daily Weather History Graph

Search for Another Location

Airport or City:

Trip Planner

Search our weather history database for the weather conditions in past years. The results will help you decide how hot, cold, wet, or windy it might be!

Date:

Astronomy

May. 05, 2014 Rise Set
Actual Time 6:12 AM CDT 8:11 PM CDT
Civil Twilight 5:43 AM CDT 8:40 PM CDT
Nautical Twilight 5:08 AM CDT 9:16 PM CDT
Astronomical Twilight 4:30 AM CDT 9:54 PM CDT
Moon 11:33 AM CDT (5/5) 12:56 AM CDT (5/5)
Length of Visible Light 14h 56m
Length of Day
13h 58m
Waxing Crescent, 37% of the Moon is Illuminated
May 5
Waxing Crescent
May 6
First Quarter
May 14
Full
May 21
Last Quarter
May 28
New

Hourly Weather History & Observations

Time (CDT) Temp. Dew Point Humidity Pressure Visibility Wind Dir Wind Speed Gust Speed Precip Events Conditions
12:15 AM - - N/A% 29.75 in 10.0 mi East 4.6 mph - N/A   Clear
12:35 AM - - N/A% 29.75 in 10.0 mi East 3.5 mph - N/A   Clear
12:55 AM - - N/A% 29.74 in 10.0 mi SE 5.8 mph - N/A   Clear
1:15 AM - - N/A% 29.73 in 10.0 mi SE 5.8 mph - N/A   Clear
1:35 AM - - N/A% 29.72 in 10.0 mi SSE 5.8 mph - N/A   Clear
1:55 AM - - N/A% 29.72 in 10.0 mi SSE 4.6 mph - N/A   Clear
2:15 AM - - N/A% 29.72 in 10.0 mi SSE 4.6 mph - N/A   Clear
2:35 AM - - N/A% 29.71 in 10.0 mi South 4.6 mph - N/A   Clear
2:55 AM - - N/A% 29.71 in 10.0 mi South 4.6 mph - N/A   Clear
3:15 AM - - N/A% 29.72 in 10.0 mi South 5.8 mph - N/A   Clear
3:35 AM - - N/A% 29.72 in 10.0 mi South 5.8 mph - N/A   Clear
3:55 AM - - N/A% 29.72 in 10.0 mi SSW 5.8 mph - N/A   Clear
4:15 AM - - N/A% 29.72 in 10.0 mi SSW 5.8 mph - N/A   Clear
4:35 AM - - N/A% 29.72 in 10.0 mi South 5.8 mph - N/A   Clear
4:55 AM - - N/A% 29.72 in 10.0 mi SSW 3.5 mph - N/A   Clear
5:15 AM - - N/A% 29.73 in 10.0 mi Calm Calm - N/A   Clear
5:35 AM - - N/A% 29.73 in 10.0 mi Calm Calm - N/A   Clear
5:55 AM - - N/A% 29.74 in 10.0 mi Calm Calm - N/A   Clear
6:15 AM - - N/A% 29.74 in 10.0 mi Calm Calm - N/A   Clear
6:35 AM - - N/A% 29.75 in 10.0 mi Calm Calm - N/A   Clear
6:55 AM - - N/A% 29.76 in 10.0 mi Calm Calm - N/A   Clear
7:15 AM - - N/A% 29.76 in 10.0 mi ESE 3.5 mph - N/A   Clear
7:55 AM - - N/A% 29.75 in 10.0 mi SSE 8.1 mph - N/A   Clear
8:15 AM - - N/A% 29.75 in 10.0 mi South 6.9 mph - N/A   Clear
8:35 AM - - N/A% 29.75 in 10.0 mi South 8.1 mph - N/A   Clear
8:55 AM - - N/A% 29.75 in 10.0 mi South 5.8 mph - N/A   Clear
9:15 AM - - N/A% 29.75 in 10.0 mi South 9.2 mph - N/A   Clear
9:35 AM - - N/A% 29.75 in 10.0 mi SSW 10.4 mph - N/A   Clear
9:55 AM - - N/A% 29.75 in 10.0 mi SSW 16.1 mph 20.7 mph N/A   Clear
10:15 AM - - N/A% 29.75 in 10.0 mi SW 12.7 mph 16.1 mph N/A   Clear
11:15 AM - - N/A% 29.76 in 10.0 mi SW 9.2 mph - N/A   Clear
11:35 AM - - N/A% 29.75 in 10.0 mi SW 11.5 mph - N/A   Clear
11:55 AM - - N/A% 29.75 in 10.0 mi SSW 6.9 mph - N/A   Clear
12:15 PM - - N/A% 29.75 in 10.0 mi SW 9.2 mph - N/A   Clear
12:35 PM - - N/A% 29.74 in 10.0 mi WSW 3.5 mph - N/A   Clear
12:55 PM - - N/A% 29.73 in 10.0 mi SW 6.9 mph - N/A   Clear
1:15 PM - - N/A% 29.73 in 10.0 mi Calm Calm - N/A   Clear
1:35 PM - - N/A% 29.72 in 10.0 mi Calm Calm - N/A   Clear
1:55 PM - - N/A% 29.72 in 10.0 mi NW 3.5 mph - N/A   Clear
2:15 PM - - N/A% 29.72 in 10.0 mi SSW 3.5 mph - N/A   Clear
2:35 PM - - N/A% 29.72 in 10.0 mi South 8.1 mph - N/A   Clear
2:55 PM - - N/A% 29.71 in 10.0 mi South 3.5 mph - N/A   Clear
3:15 PM - - N/A% 29.70 in 10.0 mi SSE 8.1 mph - N/A   Clear
3:55 PM - - N/A% 29.70 in 10.0 mi SSE 4.6 mph - N/A   Clear
4:15 PM - - N/A% 29.69 in 10.0 mi South 3.5 mph - N/A   Clear
4:35 PM - - N/A% 29.70 in 10.0 mi SE 5.8 mph - N/A   Clear
4:55 PM - - N/A% 29.70 in 10.0 mi SSE 4.6 mph - N/A   Clear
5:15 PM - - N/A% 29.69 in 10.0 mi Calm Calm - N/A   Clear
5:35 PM - - N/A% 29.69 in 10.0 mi SSE 3.5 mph - N/A   Clear
5:55 PM - - N/A% 29.69 in 10.0 mi Calm Calm - N/A   Clear
6:15 PM - - N/A% 29.69 in 10.0 mi Calm Calm - N/A   Clear
6:35 PM - - N/A% 29.69 in 10.0 mi Calm Calm - N/A   Clear
6:55 PM - - N/A% 29.69 in 10.0 mi Calm Calm - N/A   Clear
7:15 PM - - N/A% 29.68 in 10.0 mi Calm Calm - N/A   Clear
7:35 PM - - N/A% 29.69 in 10.0 mi Calm Calm - N/A   Clear
7:55 PM - - N/A% 29.70 in 10.0 mi North 10.4 mph - N/A   Clear
8:15 PM - - N/A% 29.71 in 10.0 mi NNE 12.7 mph 17.3 mph N/A   Clear
8:35 PM - - N/A% 29.72 in 10.0 mi NNE 11.5 mph - N/A   Clear
8:55 PM - - N/A% 29.73 in 10.0 mi NNE 12.7 mph 16.1 mph N/A   Clear
9:15 PM - - N/A% 29.74 in 10.0 mi NNE 9.2 mph - N/A   Clear
9:35 PM - - N/A% 29.75 in 10.0 mi NNE 10.4 mph 16.1 mph N/A   Clear
9:55 PM - - N/A% 29.76 in 10.0 mi NE 6.9 mph - N/A   Clear
10:15 PM - - N/A% 29.76 in 10.0 mi NE 8.1 mph - N/A   Clear
10:35 PM - - N/A% 29.76 in 10.0 mi NE 6.9 mph - N/A   Clear
10:55 PM - - N/A% 29.76 in 10.0 mi NE 5.8 mph - N/A   Clear
11:15 PM - - N/A% 29.76 in 10.0 mi ENE 6.9 mph - N/A   Clear
11:35 PM - - N/A% 29.77 in 10.0 mi NNE 3.5 mph - N/A   Clear
11:55 PM - - N/A% 29.77 in 10.0 mi NNE 4.6 mph - N/A   Clear